#timestamp,LO_Frequency,Hit,StdDev 
1691971215.2,286047002.1,P
1691971235.1,286047001.7,N
1691971236.0,286047001.7,P
1691971255.8,286047002.3,Y
1691971275.7,286046999.4,P
1691971295.5,286046997.1,N
1691971315.3,286046997.9,N
1691971335.2,286046995.0,N
1691971355.0,286046997.9,N
1691971355.9,286046997.9,N
1691971375.7,286046995.0,N
1691971395.6,286046997.6,N
1691971415.4,286046997.2,N
1691971435.3,286046995.5,N
1691971455.1,286046996.1,N
1691971475.8,286046995.2,N
1691971495.7,286046995.4,N
1691971515.5,286046995.6,N
1691971535.4,286046997.5,N
1691971555.2,286046997.8,N
1691971575.0,286046995.8,N
1691971575.9,286046995.8,N
1691971595.8,286046995.3,N
1691971615.6,286046997.1,N
1691971635.4,286046996.9,N
1691971655.3,286046996.6,N
1691971675.1,286046998.3,N
1691971695.9,286046997.1,N
1691971715.7,286046997.0,N
1691971735.5,286046997.2,N
1691971755.4,286046994.9,Y
1691971775.2,286047001.2,P
1691971795.1,286046998.5,N
1691971796.0,286046998.5,N
1691971815.8,286046997.0,N
1691971835.6,286046995.0,Y
1691971855.5,286046999.5,P
1691971875.3,286046998.9,N
1691971895.1,286046998.3,P
1691971915.9,286047001.2,N
1691971935.7,286047000.3,N
1691971955.6,286047002.7,N
1691971975.4,286047004.3,N
1691971995.2,286047004.1,N
1691972015.1,286047003.7,N
1691972016.0,286047003.7,N
1691972035.8,286047005.9,N
1691972055.6,286047003.4,N
1691972075.5,286047001.5,N
1691972095.3,286047000.9,N
1691972115.2,286046998.1,N
1691972135.9,286046998.4,N
1691972155.7,286046999.4,N
1691972175.6,286046996.6,N
1691972195.4,286046999.2,N
1691972215.2,286047000.8,N
1691972235.1,286047000.3,N
1691972236.0,286047000.3,N
1691972255.8,286047002.8,N
1691972275.7,286047002.8,N
1691972295.5,286047001.3,N
1691972315.3,286047004.4,N
1691972335.2,286047004.2,N
1691972355.0,286047003.2,N
1691972355.9,286047003.2,N
1691972375.7,286047005.6,N
1691972395.6,286047004.5,N
1691972415.4,286047007.2,N
1691972435.3,286047007.4,N
1691972455.1,286047007.1,N
1691972475.8,286047007.0,N
1691972495.7,286047006.5,N
1691972515.5,286047006.8,N
1691972535.4,286047007.0,N
1691972555.2,286047005.0,N
1691972575.0,286047005.6,N
1691972575.9,286047005.6,N
1691972595.8,286047001.5,N
1691972615.6,286047000.3,N
1691972635.5,286047001.7,N
1691972655.3,286047003.9,N
1691972675.1,286047002.3,N
1691972695.9,286047002.7,N
1691972715.7,286046999.7,N
1691972735.5,286047002.0,N
1691972755.4,286047004.4,N
1691972775.2,286047001.5,N
1691972795.0,286047001.6,N
1691972796.0,286047001.6,N
1691972815.8,286047002.0,N
1691972835.6,286047000.6,N
1691972855.5,286047001.2,N
1691972875.3,286047000.2,N
1691972895.1,286047002.5,N
1691972915.9,286047001.8,N
1691972935.7,286047002.1,N
1691972955.6,286047001.6,N
1691972975.4,286047002.5,N
1691972995.2,286046999.8,N
1691973015.1,286046999.7,N
1691973016.0,286046999.7,N
1691973035.8,286046999.8,N
1691973055.7,286047000.6,N
1691973075.5,286046999.9,N
1691973095.3,286046999.9,N
1691973115.2,286047000.1,N
1691973135.9,286046998.2,N
1691973155.7,286046999.3,N
1691973175.6,286046999.2,N
1691973195.4,286046998.7,N
1691973215.2,286047000.7,N
1691973235.1,286046998.6,N
1691973236.0,286046998.6,N
1691973255.8,286046998.4,N
1691973275.7,286046998.2,N
1691973295.5,286047001.1,N
1691973315.3,286047002.4,N
1691973335.2,286047002.3,N
1691973355.0,286046999.7,N
1691973355.9,286046999.7,N
1691973375.8,286046999.7,N
1691973395.6,286047001.3,N
1691973415.4,286047002.9,N
1691973435.3,286047006.0,Y
1691973455.1,286047003.2,P
1691973475.8,286047006.0,P
1691973495.7,286047005.8,N
1691973515.5,286047005.5,N
1691973535.4,286047005.8,N
1691973555.2,286047003.0,N
1691973575.0,286047001.9,N
1691973575.9,286047001.9,N
1691973595.8,286047002.8,N
1691973615.6,286047002.6,N
1691973635.4,286047002.3,N
1691973655.3,286047002.5,N
1691973675.1,286047002.8,N
1691973695.9,286047000.2,N
1691973715.7,286047002.5,N
1691973735.5,286047002.7,N
1691973755.4,286046999.8,N
1691973775.2,286047000.2,N
1691973795.0,286047002.6,N
1691973795.9,286047002.6,N
1691973815.8,286047002.6,N
1691973835.6,286047001.9,N
1691973855.5,286047000.1,N
1691973875.3,286047002.0,N
1691973895.1,286047001.8,N
1691973915.9,286047001.9,N
1691973935.7,286047001.7,N
1691973955.5,286047001.3,N
1691973975.4,286047003.9,N
1691973995.2,286047004.1,N
1691974015.1,286047003.4,N
1691974016.0,286047003.4,N
1691974035.8,286047003.8,N
1691974055.6,286047004.1,N
1691974075.5,286047002.0,N
1691974095.3,286047001.5,N
1691974115.1,286047001.7,N
1691974135.9,286047002.3,N
1691974155.7,286047003.9,Y
1691974175.6,286047002.8,P
1691974195.4,286047001.0,P
1691974215.2,286047001.1,N
1691974235.1,286046998.5,N
1691974236.0,286046998.5,N
1691974255.8,286046998.5,N
1691974275.6,286046999.4,N
1691974295.5,286046996.8,N
1691974315.3,286046997.3,N
1691974335.2,286046997.8,N
1691974355.9,286046997.5,N
1691974375.7,286046999.5,N
1691974395.6,286046998.7,N
1691974415.4,286046998.7,N
1691974435.2,286047000.5,N
1691974455.1,286047002.6,N
1691974456.0,286047002.6,N
1691974475.8,286047000.3,N
1691974495.7,286047000.6,N
1691974515.5,286047000.3,N
1691974535.3,286047001.1,N
1691974555.2,286046998.7,N
1691974575.9,286046996.7,N
1691974595.7,286046997.8,N
1691974615.6,286046997.9,N
1691974635.4,286046997.2,N
1691974655.3,286046998.8,N
1691974675.1,286046998.7,N
1691974676.0,286046998.7,N
1691974695.8,286046999.0,N
1691974715.7,286046998.3,N
1691974735.5,286046999.3,N
1691974755.3,286046998.6,N
1691974775.2,286047001.1,N
1691974795.0,286046999.4,N
1691974795.9,286046999.4,N
